Weather History for VIDP - October, 2011

Change the Weather History Date:

Monday, October 17, 2011

  Actual Average Record
Temperature  
Mean Temperature 78 °F -  
Max Temperature 91 °F 83 °F 95 °F (2000)
Min Temperature 64 °F 61 °F 62 °F (2014)
Cooling Degree Days 12    
Growing Degree Days 28 (Base 50)    
Moisture  
Dew Point 53 °F    
Average Humidity 45    
Maximum Humidity 83    
Minimum Humidity 20    
Precipitation  
Precipitation 0.00 in - - ()
Sea Level Pressure  
Sea Level Pressure 29.86 in    
Wind  
Wind Speed 2 mph ()    
Max Wind Speed 9 mph    
Max Gust Speed -    
Visibility 1.4 miles    
Events      
Averages and records for this station are not official NWS values.
T = Trace of Precipitation, MM = Missing Value Source: Averaged Metar Reports

Daily Weather History Graph

Daily Weather History Graph

Search for Another Location

Airport or City:

Trip Planner

Search our weather history database for the weather conditions in past years. The results will help you decide how hot, cold, wet, or windy it might be!

Date:

Astronomy

Oct. 17, 2011 Rise Set
Actual Time 6:23 AM IST 5:50 PM IST
Civil Twilight 5:59 AM IST 6:14 PM IST
Nautical Twilight 5:31 AM IST 6:41 PM IST
Astronomical Twilight 5:04 AM IST 7:09 PM IST
Moon 9:25 PM IST (10/17) 10:46 AM IST (10/17)
Length of Visible Light 12h 14m
Length of Day
11h 27m
Waning Gibbous, 77% of the Moon is Illuminated
Oct 17
Waning Gibbous
Oct 20
Last Quarter
Oct 27
New
Nov 2
First Quarter
Nov 11
Full

Hourly Weather History & Observations

Time (IST) Temp. Heat Index Dew Point Humidity Pressure Visibility Wind Dir Wind Speed Gust Speed Precip Events Conditions
12:00 AM 73.4 °F - 53.6 °F 50% 29.86 in 1.2 mi Calm Calm - N/A   Haze
12:30 AM 73.4 °F - 53.6 °F 50% 29.86 in 1.2 mi Calm Calm - N/A   Haze
1:00 AM 73.4 °F - 55.4 °F 53% 29.86 in 1.2 mi Calm Calm - N/A   Haze
1:30 AM 71.6 °F - 53.6 °F 53% 29.83 in 1.1 mi Calm Calm - N/A   Haze
2:00 AM 71.6 °F - 57.2 °F 60% 29.83 in 1.0 mi Calm Calm - N/A   Haze
2:30 AM 71.6 °F - 57.2 °F 60% 29.83 in 1.0 mi Calm Calm - N/A   Haze
3:30 AM 68.0 °F - 59.0 °F 73% 29.83 in 0.9 mi WSW 5.8 mph - N/A   Haze
4:00 AM 68.0 °F - 59.0 °F 73% 29.83 in 0.9 mi Calm Calm - N/A   Haze
4:30 AM 68.0 °F - 59.0 °F 73% 29.83 in 0.9 mi West 4.6 mph - N/A   Haze
5:00 AM 66.2 °F - 57.2 °F 73% 29.83 in 0.9 mi West 4.6 mph - N/A   Haze
5:30 AM 64.4 °F - 59.0 °F 83% 29.83 in 0.9 mi West 3.5 mph - N/A   Mist
6:00 AM 64.4 °F - 57.2 °F 77% 29.86 in 1.1 mi West 3.5 mph - N/A   Mist
6:30 AM 64.4 °F - 55.4 °F 73% 29.86 in 1.1 mi West 3.5 mph - N/A   Smoke
7:00 AM 66.2 °F - 55.4 °F 68% 29.89 in 1.1 mi WSW 4.6 mph - N/A   Smoke
7:30 AM 66.2 °F - 55.4 °F 68% 29.89 in 1.1 mi WSW 3.5 mph - N/A   Smoke
8:00 AM 69.8 °F - 55.4 °F 60% 29.92 in 1.1 mi Calm Calm - N/A   Smoke
8:30 AM 73.4 °F - 55.4 °F 53% 29.92 in 1.0 mi WNW 3.5 mph - N/A   Smoke
9:00 AM 77.0 °F - 53.6 °F 44% 29.92 in 1.1 mi WSW 3.5 mph - N/A   Smoke
9:30 AM 78.8 °F - 53.6 °F 42% 29.92 in 1.2 mi West 3.5 mph - N/A   Smoke
10:00 AM 80.6 °F 80.3 °F 53.6 °F 39% 29.92 in 1.5 mi WNW 2.3 mph - N/A   Smoke
10:30 AM 82.4 °F 81.4 °F 53.6 °F 37% 29.92 in 1.5 mi West 2.3 mph - N/A   Smoke
11:00 AM 84.2 °F 82.8 °F 53.6 °F 35% 29.92 in 1.5 mi West 2.3 mph - N/A   Smoke
11:30 AM 86.0 °F 84.2 °F 53.6 °F 33% 29.89 in 1.5 mi Calm Calm - N/A   Haze
12:00 PM 87.8 °F - 51.8 °F 29% 29.89 in 1.5 mi NW 3.5 mph - N/A   Haze
12:30 PM 87.8 °F - 51.8 °F 29% 29.86 in 1.6 mi NW 4.6 mph - N/A   Haze
1:00 PM 89.6 °F - 50.0 °F 26% 29.86 in 1.6 mi Calm Calm - N/A   Haze
1:30 PM 89.6 °F - 48.2 °F 24% 29.86 in 1.6 mi Calm Calm - N/A   Haze
2:30 PM 91.4 °F - 44.6 °F 20% 29.83 in 1.9 mi NW 6.9 mph - N/A   Haze
3:00 PM 91.4 °F - 44.6 °F 20% 29.80 in 1.9 mi NW 8.1 mph - N/A   Haze
3:30 PM 91.4 °F - 44.6 °F 20% 29.80 in 1.9 mi WNW 8.1 mph - N/A   Haze
4:00 PM 91.4 °F - 44.6 °F 20% 29.80 in 1.9 mi WNW 9.2 mph - N/A   Haze
4:30 PM 89.6 °F - 44.6 °F 21% 29.80 in 2.2 mi WNW 8.1 mph - N/A   Haze
5:00 PM 87.8 °F - 46.4 °F 24% 29.80 in 2.2 mi NW 5.8 mph - N/A   Haze
5:30 PM 87.8 °F - 46.4 °F 24% 29.83 in 2.2 mi NW 6.9 mph - N/A   Haze
6:00 PM 87.8 °F - 46.4 °F 24% 29.83 in 2.2 mi NNW 6.9 mph - N/A   Haze
6:30 PM 86.0 °F - 48.2 °F 27% 29.83 in - North 4.6 mph - N/A   Haze
7:00 PM 84.2 °F - 48.2 °F 29% 29.83 in - NNE 3.5 mph - N/A   Haze
7:30 PM 82.4 °F - 50.0 °F 32% 29.83 in 1.6 mi Calm Calm - N/A   Haze
8:00 PM 78.8 °F - 53.6 °F 42% 29.86 in 1.6 mi Calm Calm - N/A   Haze
8:30 PM 78.8 °F - 55.4 °F 44% 29.86 in 1.6 mi Calm Calm - N/A   Haze
9:00 PM 77.0 °F - 55.4 °F 47% 29.86 in 1.3 mi Calm Calm - N/A   Haze
9:30 PM 75.2 °F - 55.4 °F 50% 29.86 in 1.1 mi Calm Calm - N/A   Haze
10:00 PM 75.2 °F - 55.4 °F 50% 29.89 in 1.0 mi Calm Calm - N/A   Haze
10:30 PM 75.2 °F - 55.4 °F 50% 29.89 in 1.0 mi Calm Calm - N/A   Haze
11:00 PM 75.2 °F - 55.4 °F 50% 29.89 in 1.0 mi Calm Calm - N/A   Haze